Staples, MN

7:33 PM CDT on April 25, 2017 (GMT -0500)
Staples Municipal

Weather History for KSAZ - December, 2012

Change the Weather History Date:

Sunday, December 30, 2012

  Actual Average Record
Temperature  
Mean Temperature 6 °F -  
Max Temperature 19 °F 17 °F 39 °F (2004)
Min Temperature -7 °F 3 °F -23 °F (2013)
Degree Days  
Heating Degree Days 59    
Moisture  
Dew Point 3 °F    
Average Humidity 86    
Maximum Humidity 100    
Minimum Humidity 73    
Precipitation  
Precipitation 0.00 in - - ()
Sea Level Pressure  
Sea Level Pressure 29.97 in    
Wind  
Wind Speed 3 mph (SSW)    
Max Wind Speed 21 mph    
Max Gust Speed 24 mph    
Visibility 8 miles    
Events Fog , Snow    
Averages and records for this station are not official NWS values.
T = Trace of Precipitation, MM = Missing Value Source: NWS Daily Summary

Daily Weather History Graph

Daily Weather History Graph

Search for Another Location

Airport or City:

Trip Planner

Search our weather history database for the weather conditions in past years. The results will help you decide how hot, cold, wet, or windy it might be!

Date:

Astronomy

Dec. 30, 2012 Rise Set
Actual Time 8:02 AM CST 4:41 PM CST
Civil Twilight 7:27 AM CST 5:16 PM CST
Nautical Twilight 6:49 AM CST 5:54 PM CST
Astronomical Twilight 6:13 AM CST 6:31 PM CST
Moon 7:23 PM CST (12/30) 9:03 AM CST (12/30)
Length of Visible Light 9h 48m
Length of Day
8h 39m
Waning Gibbous, 95% of the Moon is Illuminated
Dec 30
Waning Gibbous
Jan 4
Last Quarter
Jan 11
New
Jan 18
First Quarter
Jan 26
Full

Hourly Weather History & Observations

Time (CST) Temp. Windchill Dew Point Humidity Pressure Visibility Wind Dir Wind Speed Gust Speed Precip Events Conditions
12:13 AM -5.8 °F - -9.4 °F 84% 30.08 in 10.0 mi Calm Calm - N/A   Clear
12:34 AM -5.8 °F - -9.4 °F 84% 30.08 in 10.0 mi Calm Calm - N/A   Clear
12:53 AM -7.6 °F - -9.4 °F 92% 30.08 in 10.0 mi Calm Calm - N/A   Clear
1:13 AM -5.8 °F - -9.4 °F 84% 30.07 in 10.0 mi Calm Calm - N/A   Clear
1:34 AM -7.6 °F - -11.2 °F 84% 30.08 in 10.0 mi Calm Calm - N/A   Clear
1:53 AM -5.8 °F - -9.4 °F 84% 30.08 in 10.0 mi Calm Calm - N/A   Clear
2:13 AM -7.6 °F - -9.4 °F 92% 30.08 in 10.0 mi Calm Calm - N/A   Clear
2:33 AM -5.8 °F - -9.4 °F 84% 30.08 in 10.0 mi Calm Calm - N/A   Clear
2:53 AM -7.6 °F - -9.4 °F 92% 30.08 in 10.0 mi Calm Calm - N/A   Scattered Clouds
3:13 AM -7.6 °F - -9.4 °F 92% 30.09 in 10.0 mi Calm Calm - N/A   Mostly Cloudy
3:33 AM -5.8 °F -14.5 °F -7.6 °F 92% 30.09 in 10.0 mi SSE 3.5 mph - N/A   Overcast
3:54 AM -4.0 °F -12.4 °F -5.8 °F 92% 30.09 in 10.0 mi South 3.5 mph - N/A   Overcast
4:13 AM -2.2 °F - -5.8 °F 85% 30.07 in 3.0 mi Calm Calm - N/A   Overcast
4:33 AM -2.2 °F -12.5 °F -5.8 °F 85% 30.07 in 0.8 mi South 4.6 mph - N/A   Overcast
4:54 AM -2.2 °F -10.4 °F -4.0 °F 92% 30.06 in 0.5 mi South 3.5 mph - N/A Fog Light Freezing Fog
5:13 AM -0.4 °F -8.3 °F -4.0 °F 85% 30.06 in 0.5 mi South 3.5 mph - N/A Fog Light Freezing Fog
5:33 AM -0.4 °F -8.3 °F -4.0 °F 85% 30.05 in 0.5 mi South 3.5 mph - N/A Fog Light Freezing Fog
5:54 AM -0.4 °F - -2.2 °F 92% 30.04 in 3.0 mi Calm Calm - N/A   Overcast
6:13 AM -0.4 °F - -2.2 °F 92% 30.04 in 1.8 mi Calm Calm - N/A   Overcast
6:33 AM -0.4 °F - -2.2 °F 92% 30.04 in 3.0 mi Calm Calm - N/A   Overcast
6:54 AM -0.4 °F - -4.0 °F 85% 30.05 in 4.0 mi Calm Calm - N/A   Overcast
7:13 AM -2.2 °F - -4.0 °F 92% 30.04 in 7.0 mi Calm Calm - N/A   Scattered Clouds
7:33 AM -2.2 °F - -5.8 °F 85% 30.05 in 7.0 mi Calm Calm - N/A   Scattered Clouds
7:53 AM -2.2 °F - -5.8 °F 85% 30.03 in 10.0 mi Calm Calm - N/A   Scattered Clouds
8:14 AM -2.2 °F - -5.8 °F 85% 30.03 in 7.0 mi Calm Calm - N/A   Clear
8:33 AM -2.2 °F - -4.0 °F 92% 30.03 in 7.0 mi Calm Calm - N/A   Clear
8:53 AM -0.4 °F - -4.0 °F 85% 30.03 in 7.0 mi Calm Calm - N/A   Clear
9:14 AM -0.4 °F - -4.0 °F 85% 30.02 in 10.0 mi Calm Calm - N/A   Clear
9:33 AM -0.4 °F - -2.2 °F 92% 30.01 in 7.0 mi Calm Calm - N/A   Clear
9:53 AM 1.4 °F - -0.4 °F 92% 30.01 in 7.0 mi Calm Calm - N/A   Clear
10:14 AM 3.2 °F - 1.4 °F 92% 30.02 in 7.0 mi Calm Calm - N/A   Clear
10:33 AM 6.8 °F - 3.2 °F 85% 30.01 in 7.0 mi Calm Calm - N/A   Clear
10:53 AM 8.6 °F -2.6 °F 6.8 °F 92% 30.00 in 7.0 mi South 6.9 mph - N/A   Clear
11:13 AM 10.4 °F -2.4 °F 8.6 °F 92% 29.98 in 7.0 mi SSE 9.2 mph - N/A   Clear
11:33 AM 10.4 °F -1.5 °F 10.4 °F 100% 29.97 in 10.0 mi South 8.1 mph - N/A   Clear
11:54 AM 12.2 °F 2.9 °F 10.4 °F 92% 29.94 in 10.0 mi South 5.8 mph - N/A   Clear
12:13 PM 14.0 °F 2.9 °F 12.2 °F 93% 29.93 in 10.0 mi South 8.1 mph - N/A   Clear
12:33 PM 15.8 °F 6.1 °F 12.2 °F 86% 29.91 in 10.0 mi South 6.9 mph - N/A   Clear
12:54 PM 17.6 °F - 10.4 °F 73% 29.90 in 10.0 mi Calm Calm - N/A   Clear
1:13 PM 17.6 °F 5.7 °F 10.4 °F 73% 29.89 in 10.0 mi South 10.4 mph - N/A   Clear
1:33 PM 17.6 °F 10.7 °F 12.2 °F 79% 29.87 in 10.0 mi South 4.6 mph - N/A   Clear
1:54 PM 19.4 °F 10.4 °F 12.2 °F 74% 29.86 in 10.0 mi South 6.9 mph - N/A   Clear
2:13 PM 19.4 °F 11.5 °F 12.2 °F 74% 29.85 in 10.0 mi South 5.8 mph - N/A   Clear
2:33 PM 19.4 °F 8.6 °F 12.2 °F 74% 29.84 in 10.0 mi SSE 9.2 mph - N/A   Clear
2:54 PM 17.6 °F 8.2 °F 10.4 °F 73% 29.83 in 10.0 mi SSE 6.9 mph - N/A   Clear
3:13 PM 17.6 °F 8.2 °F 10.4 °F 73% 29.84 in 10.0 mi South 6.9 mph - N/A   Clear
3:33 PM 17.6 °F 7.3 °F 10.4 °F 73% 29.85 in 10.0 mi SSE 8.1 mph - N/A   Clear
3:54 PM 15.8 °F - 10.4 °F 79% 29.85 in 10.0 mi Calm Calm - N/A   Clear
4:13 PM 15.8 °F 10.2 °F 10.4 °F 79% 29.84 in 10.0 mi SSE 3.5 mph - N/A   Clear
4:38 PM 15.8 °F - 10.4 °F 79% 29.86 in 10.0 mi Calm Calm - N/A   Clear
4:58 PM 12.2 °F - 8.6 °F 85% 29.85 in 10.0 mi Calm Calm - N/A   Clear
5:13 PM 14.0 °F 8.2 °F 8.6 °F 79% 29.84 in 10.0 mi SSE 3.5 mph - N/A   Clear
5:33 PM 10.4 °F - 8.6 °F 92% 29.86 in 10.0 mi Calm Calm - N/A   Scattered Clouds
5:53 PM 10.4 °F 4.0 °F 8.6 °F 92% 29.86 in 10.0 mi South 3.5 mph - N/A   Mostly Cloudy
6:14 PM 10.4 °F - 6.8 °F 85% 29.86 in 10.0 mi Calm Calm - N/A   Mostly Cloudy
6:33 PM 10.4 °F - 6.8 °F 85% 29.86 in 10.0 mi Calm Calm - N/A   Clear
6:53 PM 6.8 °F - 5.0 °F 92% 29.87 in 10.0 mi Calm Calm - N/A   Clear
7:14 PM 6.8 °F - 5.0 °F 92% 29.87 in 7.0 mi Calm Calm - N/A   Clear
7:33 PM 3.2 °F - 1.4 °F 92% 29.87 in 7.0 mi Calm Calm - N/A   Clear
7:52 PM 3.2 °F -9.1 °F 1.4 °F 92% 29.87 in 10.0 mi West 6.9 mph - N/A   Scattered Clouds
8:14 PM 12.2 °F -0.2 °F 10.4 °F 92% 29.87 in 10.0 mi WNW 9.2 mph - N/A   Overcast
8:33 PM 12.2 °F -1.0 °F 12.2 °F 100% 29.88 in 10.0 mi WNW 10.4 mph - N/A   Mostly Cloudy
8:54 PM 12.2 °F -0.2 °F 10.4 °F 92% 29.89 in 10.0 mi WNW 9.2 mph - N/A   Scattered Clouds
9:13 PM 12.2 °F -1.0 °F 10.4 °F 92% 29.90 in 10.0 mi WNW 10.4 mph - N/A   Clear
9:53 PM 14.0 °F -2.0 °F 10.4 °F 86% 29.93 in 10.0 mi NW 16.1 mph - N/A   Mostly Cloudy
10:13 PM 14.0 °F -1.4 °F 10.4 °F 86% 29.93 in 10.0 mi NW 15.0 mph - N/A   Overcast
10:33 PM 14.0 °F -3.9 °F 10.4 °F 86% 29.93 in 10.0 mi NW 20.7 mph - N/A   Overcast
10:53 PM 14.0 °F -2.5 °F 10.4 °F 86% 29.95 in 10.0 mi NW 17.3 mph 24.2 mph N/A Snow Light Snow
11:13 PM 12.2 °F -4.8 °F 8.6 °F 85% 29.96 in 10.0 mi NW 17.3 mph 23.0 mph N/A Snow Light Snow
11:33 PM 12.2 °F -4.3 °F 6.8 °F 79% 29.97 in 10.0 mi NNW 16.1 mph 23.0 mph N/A Snow Light Snow
11:53 PM 10.4 °F -4.8 °F 6.8 °F 85% 29.98 in 10.0 mi NNW 12.7 mph - N/A   Scattered Clouds